User: anonymous   Login
Location: Unspecified
(0.0000°N, 0.0000°E)
Time: 05:23:26
(UTC+00:00)
Language:

MSX - Orbit

View from above orbital plane
View from above orbital plane
View from above satellite
View from above satellite

Ground track
Ground track

The orbit data is extracted from the following two-line orbital elements,

1 23851U 96024A   24170.82810478  .00000311  00000-0  24819-3 0  9994
2 23851  98.9705 110.1783 0008905  84.5229 275.6950 13.98241447436552
Epoch (UTC): 18 June 2024 19:52:28
Eccentricity: 0.0008905
inclination: 98.9705°
perigee height: 893 km
apogee height: 906 km
right ascension of ascending node: 110.1783°
argument of perigee: 84.5229°
revolutions per day: 13.98241447
mean anomaly at epoch: 275.6950°
orbit number at epoch: 43655

The dashed part of the orbit path shows where the satellite is in the earth's shadow,  

DLR